sat.trackr.live / text

‹ back to catalog

ARABSAT-6A

NORAD 44186 · 2019-021A

PAYLOAD ACTIVE UNKNOWN

§ Identity

Operator
Country
AB
Launch date
2019-04-11
Launch site
AFETR
Launch vehicle
Mass (kg)
RCS (m²)

Purposes: comms

External: N2YO · Heavens-Above · Gunter

§ Orbital elements

Epoch: 2026-09-13T02:01:27.833952Z

Period
1,436.03 min
Inclination
0.0190°
Eccentricity
0.0003524
Mean motion
1.00276436 rev/d
Perigee alt
35,770.4 km
Apogee alt
35,800.1 km
Semi-major
42,163.4 km
B*
0.0000e+0
RAAN
17.5888°
Arg perigee
237.2247°
Mean anomaly
158.1617°
Rev number
2,703

§ Raw data

ARABSAT-6A1 44186U 19021A   26256.08434993  .00000000  00000+0  00000+0 0  99952 44186   0.0190  17.5888 0003524 237.2247 158.1617  1.00276436 27033

JSON: /api/v1/satellites/44186 · /tle

For live sub-satellite position, see the globe view (requires WebGL).

§ Visibility from observer

Set your observer location to see the next 7 days of passes ≥ 10°. The values pass through the URL so the page stays shareable.

No JS? Fill the form by hand. The geolocation button needs JavaScript.